,,Stat5,,Stat1,,Stat2,,Stat3,,Stat4,,Wind1,,Wind1,
time,status,PA1M_AVG,status,PR1M_SUM,status,RH1M_AVG,status,SR1M_AVG,status,TA1M_AVG,status,W1dAve1m,status,W1sAve1m,
2003-09-10, 00:00:00,VALID,918.695,VALID,0,VALID,100,VALID,0.0339617,VALID,18.0234,VALID,323,VALID,0.425189,
2003-09-10, 00:01:00,VALID,918.682,VALID,0,VALID,100,VALID,0.0509425,VALID,18.0559,VALID,326,VALID,0.26398,
2003-09-10, 00:02:00,VALID,918.679,VALID,0,VALID,100,VALID,0.0339617,VALID,18.1018,VALID,345,VALID,0.230804,
2003-09-10, 00:03:00,VALID,918.669,VALID,0,VALID,100,VALID,0,VALID,18.1014,VALID,345,VALID,0.273884,
2003-09-10, 00:04:00,VALID,918.66,VALID,0,VALID,100,VALID,0.0339617,VALID,18.1246,VALID,316,VALID,0.297743,
2003-09-10, 00:05:00,VALID,918.643,VALID,0,VALID,100,VALID,0.0679233,VALID,18.1205,VALID,325,VALID,0.208259,
2003-09-10, 00:06:00,VALID,918.631,VALID,0,VALID,100,VALID,0.0169808,VALID,18.13,VALID,328,VALID,0.142004,
2003-09-10, 00:07:00,VALID,918.623,VALID,0,VALID,100,VALID,0.0849042,VALID,18.1431,VALID,327,VALID,0.0421464,
2003-09-10, 00:08:00,VALID,918.625,VALID,0,VALID,100,VALID,0.0509425,VALID,18.1528,VALID,327,VALID,0,
2003-09-10, 00:09:00,VALID,918.633,VALID,0,VALID,100,VALID,0.0509425,VALID,18.1655,VALID,327,VALID,0,
2003-09-10, 00:10:00,VALID,918.617,VALID,0,VALID,100,VALID,0.0679233,VALID,18.1586,VALID,327,VALID,0,
2003-09-10, 00:11:00,VALID,918.629,VALID,0,VALID,100,VALID,0.0679233,VALID,18.1754,VALID,327,VALID,0,
2003-09-10, 00:12:00,VALID,918.631,VALID,0,VALID,100,VALID,-0.0679233,VALID,18.1961,VALID,327,VALID,0.0437973,
2003-09-10, 00:13:00,VALID,918.635,VALID,0,VALID,100,VALID,-0.0509425,VALID,18.2026,VALID,327,VALID,0,
2003-09-10, 00:14:00,VALID,918.637,VALID,0,VALID,100,VALID,-0.0169808,VALID,18.1991,VALID,327,VALID,0,
2003-09-10, 00:15:00,VALID,918.634,VALID,0,VALID,100,VALID,-0.0849042,VALID,18.2028,VALID,341,VALID,0.216222,
2003-09-10, 00:16:00,VALID,918.606,VALID,0,VALID,100,VALID,-0.101885,VALID,18.2058,VALID,359,VALID,0.218133,
2003-09-10, 00:17:00,VALID,918.615,VALID,0,VALID,100,VALID,-0.0509425,VALID,18.2123,VALID,359,VALID,0.267411,
2003-09-10, 00:18:00,VALID,918.608,VALID,0,VALID,100,VALID,-0.0339617,VALID,18.2155,VALID,359,VALID,0.235754,
2003-09-10, 00:19:00,VALID,918.605,VALID,0,VALID,100,VALID,-0.0339617,VALID,18.2153,VALID,359,VALID,0.344172,
2003-09-10, 00:20:00,VALID,918.594,VALID,0,VALID,100,VALID,-0.0339617,VALID,18.2217,VALID,359,VALID,0.283784,
2003-09-10, 00:21:00,VALID,918.585,VALID,0,VALID,100,VALID,-0.0509425,VALID,18.2086,VALID,359,VALID,0.342285,
2003-09-10, 00:22:00,VALID,918.582,VALID,0,VALID,99.999,VALID,-0.0169808,VALID,18.218,VALID,359,VALID,0.321615,
2003-09-10, 00:23:00,VALID,918.587,VALID,0,VALID,99.999,VALID,-0.0169808,VALID,18.2215,VALID,359,VALID,0.240451,
2003-09-10, 00:24:00,VALID,918.588,VALID,0,VALID,99.986,VALID,-0.0339617,VALID,18.222,VALID,359,VALID,0.0319602,
2003-09-10, 00:25:00,VALID,918.579,VALID,0,VALID,99.9659,VALID,-0.0339617,VALID,18.222,VALID,359,VALID,0.0629112,
2003-09-10, 00:26:00,VALID,918.572,VALID,0,VALID,99.9418,VALID,0,VALID,18.215,VALID,15,VALID,0.682366,
2003-09-10, 00:27:00,VALID,918.559,VALID,0,VALID,99.8171,VALID,0.101885,VALID,18.1878,VALID,12,VALID,0.955653,
2003-09-10, 00:28:00,VALID,918.555,VALID,0,VALID,99.7281,VALID,0.0679233,VALID,18.1717,VALID,12,VALID,0.38788,
2003-09-10, 00:29:00,VALID,918.537,VALID,0,VALID,99.7167,VALID,0.0509425,VALID,18.1945,VALID,12,VALID,0.143581,
2003-09-10, 00:30:00,VALID,918.52,VALID,0,VALID,99.6544,VALID,0.101885,VALID,18.1973,VALID,12,VALID,0.210938,
2003-09-10, 00:31:00,VALID,918.502,VALID,0,VALID,99.5819,VALID,0.0849042,VALID,18.2139,VALID,12,VALID,0.389757,
2003-09-10, 00:32:00,VALID,918.491,VALID,0,VALID,99.5272,VALID,0.0849042,VALID,18.2167,VALID,14,VALID,0.606771,
2003-09-10, 00:33:00,VALID,918.465,VALID,0,VALID,99.4357,VALID,0.0679233,VALID,18.2266,VALID,20,VALID,0.671402,
2003-09-10, 00:34:00,VALID,918.428,VALID,0,VALID,99.3619,VALID,0.0679233,VALID,18.2395,VALID,20,VALID,0.306538,
2003-09-10, 00:35:00,VALID,918.399,VALID,0,VALID,99.3174,VALID,0.0679233,VALID,18.2589,VALID,20,VALID,0.178571,
2003-09-10, 00:36:00,VALID,918.388,VALID,0,VALID,99.2271,VALID,0.0679233,VALID,18.272,VALID,14,VALID,0.672794,
2003-09-10, 00:37:00,VALID,918.366,VALID,0,VALID,99.1127,VALID,0.0509425,VALID,18.2743,VALID,14,VALID,0.539696,
2003-09-10, 00:38:00,VALID,918.353,VALID,0,VALID,99.0733,VALID,0.0849042,VALID,18.2877,VALID,16,VALID,0.78674,
2003-09-10, 00:39:00,VALID,918.329,VALID,0,VALID,98.9982,VALID,0.0509425,VALID,18.2974,VALID,6,VALID,1.05249,
2003-09-10, 00:40:00,VALID,918.318,VALID,0,VALID,98.9283,VALID,0.0849042,VALID,18.3066,VALID,17,VALID,0.825304,
2003-09-10, 00:41:00,VALID,918.301,VALID,0,VALID,98.8126,VALID,0.101885,VALID,18.3336,VALID,16,VALID,0.711372,
2003-09-10, 00:42:00,VALID,918.283,VALID,0,VALID,98.7643,VALID,0.0169808,VALID,18.337,VALID,15,VALID,0.650568,
2003-09-10, 00:43:00,VALID,918.271,VALID,0,VALID,98.7325,VALID,0.0509425,VALID,18.3596,VALID,3,VALID,1.07977,
2003-09-10, 00:44:00,VALID,918.255,VALID,0,VALID,98.6956,VALID,0.0169808,VALID,18.3693,VALID,6,VALID,1.00067,
2003-09-10, 00:45:00,VALID,918.24,VALID,0,VALID,98.6384,VALID,0.0169808,VALID,18.4058,VALID,4,VALID,0.854779,
2003-09-10, 00:46:00,VALID,918.22,VALID,0,VALID,98.5176,VALID,0,VALID,18.3986,VALID,8,VALID,0.828125,
2003-09-10, 00:47:00,VALID,918.21,VALID,0,VALID,98.501,VALID,0.0169808,VALID,18.4053,VALID,6,VALID,0.993454,
2003-09-10, 00:48:00,VALID,918.204,VALID,0,VALID,98.5163,VALID,0.0339617,VALID,18.4113,VALID,12,VALID,0.556885,
2003-09-10, 00:49:00,VALID,918.187,VALID,0,VALID,98.4705,VALID,0.0339617,VALID,18.4115,VALID,8,VALID,0.558811,
2003-09-10, 00:50:00,VALID,918.188,VALID,0,VALID,98.4451,VALID,0,VALID,18.4221,VALID,10,VALID,0.696832,
2003-09-10, 00:51:00,VALID,918.183,VALID,0,VALID,98.4553,VALID,0.0509425,VALID,18.4115,VALID,3,VALID,0.862689,
2003-09-10, 00:52:00,VALID,918.181,VALID,0,VALID,98.4057,VALID,0.0169808,VALID,18.4018,VALID,10,VALID,1.0516,
2003-09-10, 00:53:00,VALID,918.168,VALID,0,VALID,98.4018,VALID,0.0509425,VALID,18.3892,VALID,16,VALID,0.865402,
2003-09-10, 00:54:00,VALID,918.162,VALID,0,VALID,98.4362,VALID,0.0509425,VALID,18.3956,VALID,18,VALID,1.05836,
2003-09-10, 00:55:00,VALID,918.159,VALID,0,VALID,98.4158,VALID,0.0509425,VALID,18.3758,VALID,12,VALID,0.938978,
2003-09-10, 00:56:00,VALID,918.142,VALID,0,VALID,98.4464,VALID,0,VALID,18.3599,VALID,12,VALID,0.906672,
2003-09-10, 00:57:00,VALID,918.137,VALID,0,VALID,98.4947,VALID,-0.0679233,VALID,18.3617,VALID,6,VALID,0.939941,
2003-09-10, 00:58:00,VALID,918.144,VALID,0,VALID,98.4781,VALID,-0.101885,VALID,18.3421,VALID,4,VALID,0.900174,
2003-09-10, 00:59:00,VALID,918.132,VALID,0,VALID,98.4731,VALID,-0.0509425,VALID,18.3287,VALID,6,VALID,0.809679,
2003-09-10, 01:00:00,VALID,918.13,VALID,0,VALID,98.5417,VALID,-0.0679233,VALID,18.3225,VALID,14,VALID,0.759233,
2003-09-10, 01:01:00,VALID,918.128,VALID,0,VALID,98.5506,VALID,-0.0679233,VALID,18.3126,VALID,9,VALID,0.990954,
2003-09-10, 01:02:00,VALID,918.123,VALID,0,VALID,98.543,VALID,-0.0679233,VALID,18.2835,VALID,13,VALID,0.836161,
2003-09-10, 01:03:00,VALID,918.11,VALID,0,VALID,98.5888,VALID,-0.0339617,VALID,18.2872,VALID,17,VALID,1.00391,
2003-09-10, 01:04:00,VALID,918.115,VALID,0,VALID,98.6002,VALID,-0.0509425,VALID,18.2644,VALID,11,VALID,1.01056,
2003-09-10, 01:05:00,VALID,918.101,VALID,0,VALID,98.6333,VALID,-0.0509425,VALID,18.2646,VALID,2,VALID,1.38408,
2003-09-10, 01:06:00,VALID,918.087,VALID,0,VALID,98.5913,VALID,-0.0509425,VALID,18.2674,VALID,11,VALID,0.99585,
2003-09-10, 01:07:00,VALID,918.071,VALID,0,VALID,98.543,VALID,-0.0679233,VALID,18.2803,VALID,4,VALID,1.11784,
2003-09-10, 01:08:00,VALID,918.049,VALID,0,VALID,98.4184,VALID,-0.0679233,VALID,18.2803,VALID,13,VALID,1.19792,
2003-09-10, 01:09:00,VALID,918.029,VALID,0,VALID,98.3434,VALID,-0.0169808,VALID,18.2932,VALID,20,VALID,0.821023,
2003-09-10, 01:10:00,VALID,918.015,VALID,0,VALID,98.2849,VALID,-0.0679233,VALID,18.2865,VALID,14,VALID,0.754317,
2003-09-10, 01:11:00,VALID,917.991,VALID,0,VALID,98.2327,VALID,-0.0679233,VALID,18.2803,VALID,14,VALID,0.48125,
2003-09-10, 01:12:00,VALID,917.978,VALID,0,VALID,98.2162,VALID,-0.0849042,VALID,18.2771,VALID,14,VALID,0.551011,
2003-09-10, 01:13:00,VALID,917.966,VALID,0,VALID,98.2073,VALID,-0.0679233,VALID,18.2542,VALID,14,VALID,0.399282,
2003-09-10, 01:14:00,VALID,917.943,VALID,0,VALID,98.1806,VALID,-0.0679233,VALID,18.2448,VALID,14,VALID,0.413007,
2003-09-10, 01:15:00,VALID,917.909,VALID,0,VALID,98.1641,VALID,-0.0849042,VALID,18.239,VALID,14,VALID,0.403564,
2003-09-10, 01:16:00,VALID,917.904,VALID,0,VALID,98.1895,VALID,-0.0679233,VALID,18.2252,VALID,14,VALID,0.298394,
2003-09-10, 01:17:00,VALID,917.868,VALID,0,VALID,98.1971,VALID,-0.0849042,VALID,18.2289,VALID,38,VALID,0.56033,
2003-09-10, 01:18:00,VALID,917.844,VALID,0,VALID,98.1552,VALID,-0.101885,VALID,18.2286,VALID,39,VALID,0.221117,
2003-09-10, 01:19:00,VALID,917.835,VALID,0,VALID,98.1272,VALID,-0.0849042,VALID,18.2323,VALID,39,VALID,0.0721628,
2003-09-10, 01:20:00,VALID,917.832,VALID,0,VALID,98.0992,VALID,-0.0679233,VALID,18.2319,VALID,28,VALID,0.474554,
2003-09-10, 01:21:00,VALID,917.831,VALID,0,VALID,98.0661,VALID,-0.0849042,VALID,18.2323,VALID,27,VALID,0.509191,
2003-09-10, 01:22:00,VALID,917.823,VALID,0,VALID,98.0356,VALID,-0.101885,VALID,18.2386,VALID,31,VALID,0.467905,
2003-09-10, 01:23:00,VALID,917.826,VALID,0,VALID,97.9873,VALID,-0.0679233,VALID,18.2259,VALID,23,VALID,0.69489,
2003-09-10, 01:24:00,VALID,917.829,VALID,0,VALID,97.9275,VALID,-0.0849042,VALID,18.2026,VALID,15,VALID,0.605713,
2003-09-10, 01:25:00,VALID,917.823,VALID,0,VALID,97.9225,VALID,-0.0849042,VALID,18.2067,VALID,21,VALID,0.716146,
2003-09-10, 01:26:00,VALID,917.803,VALID,0,VALID,97.9059,VALID,-0.0679233,VALID,18.206,VALID,26,VALID,1.10634,
2003-09-10, 01:27:00,VALID,917.788,VALID,0,VALID,97.9034,VALID,-0.0679233,VALID,18.2125,VALID,22,VALID,0.662879,
2003-09-10, 01:28:00,VALID,917.777,VALID,0,VALID,97.8996,VALID,-0.0509425,VALID,18.2125,VALID,31,VALID,0.408717,
2003-09-10, 01:29:00,VALID,917.767,VALID,0,VALID,97.9021,VALID,-0.0509425,VALID,18.2192,VALID,31,VALID,0.278348,
2003-09-10, 01:30:00,VALID,917.736,VALID,0,VALID,97.9123,VALID,-0.0679233,VALID,18.2226,VALID,39,VALID,0.391544,
2003-09-10, 01:31:00,VALID,917.717,VALID,0,VALID,97.9759,VALID,-0.0339617,VALID,18.2224,VALID,47,VALID,0.726563,
2003-09-10, 01:32:00,VALID,917.692,VALID,0,VALID,97.972,VALID,-0.0509425,VALID,18.2282,VALID,47,VALID,0.328758,
2003-09-10, 01:33:00,VALID,917.676,VALID,0,VALID,97.8856,VALID,-0.0509425,VALID,18.2554,VALID,47,VALID,0.228271,
2003-09-10, 01:34:00,VALID,917.665,VALID,0,VALID,97.8474,VALID,-0.0509425,VALID,18.2446,VALID,47,VALID,0.0533854,
2003-09-10, 01:35:00,VALID,917.652,VALID,0,VALID,97.808,VALID,-0.0679233,VALID,18.2482,VALID,47,VALID,0.0403646,
2003-09-10, 01:36:00,VALID,917.638,VALID,0,VALID,97.7927,VALID,-0.0679233,VALID,18.2485,VALID,47,VALID,0,
2003-09-10, 01:37:00,VALID,917.613,VALID,0,VALID,97.7584,VALID,-0.0679233,VALID,18.2356,VALID,41,VALID,0.225123,
2003-09-10, 01:38:00,VALID,917.589,VALID,0,VALID,97.7546,VALID,-0.0679233,VALID,18.213,VALID,13,VALID,0.988393,
2003-09-10, 01:39:00,VALID,917.569,VALID,0,VALID,97.7355,VALID,-0.0339617,VALID,18.2033,VALID,13,VALID,0.965074,
2003-09-10, 01:40:00,VALID,917.549,VALID,0,VALID,97.691,VALID,-0.0509425,VALID,18.1934,VALID,354,VALID,0.813133,
2003-09-10, 01:41:00,VALID,917.534,VALID,0,VALID,97.658,VALID,-0.0339617,VALID,18.1837,VALID,352,VALID,0.704814,
2003-09-10, 01:42:00,VALID,917.52,VALID,0,VALID,97.6923,VALID,-0.101885,VALID,18.1768,VALID,351,VALID,0.660156,
2003-09-10, 01:43:00,VALID,917.522,VALID,0,VALID,97.7152,VALID,-0.0679233,VALID,18.1837,VALID,347,VALID,0.583984,
2003-09-10, 01:44:00,VALID,917.509,VALID,0,VALID,97.7851,VALID,-0.0679233,VALID,18.1705,VALID,359,VALID,0.509766,
2003-09-10, 01:45:00,VALID,917.508,VALID,0,VALID,97.808,VALID,-0.0509425,VALID,18.1539,VALID,357,VALID,0.29072,
2003-09-10, 01:46:00,VALID,917.496,VALID,0,VALID,97.8347,VALID,-0.101885,VALID,18.168,VALID,357,VALID,0.306127,
2003-09-10, 01:47:00,VALID,917.495,VALID,0,VALID,97.897,VALID,-0.0679233,VALID,18.1512,VALID,357,VALID,0.210045,
2003-09-10, 01:48:00,VALID,917.479,VALID,0,VALID,97.9263,VALID,-0.101885,VALID,18.1452,VALID,357,VALID,0.423943,
2003-09-10, 01:49:00,VALID,917.472,VALID,0,VALID,97.9301,VALID,-0.0509425,VALID,18.132,VALID,357,VALID,0.529983,
2003-09-10, 01:50:00,VALID,917.462,VALID,0,VALID,97.9288,VALID,-0.0849042,VALID,18.1092,VALID,359,VALID,0.566934,
2003-09-10, 01:51:00,VALID,917.441,VALID,0,VALID,97.9975,VALID,-0.0679233,VALID,18.0965,VALID,353,VALID,0.599121,
2003-09-10, 01:52:00,VALID,917.426,VALID,0,VALID,98.1323,VALID,-0.0849042,VALID,18.1027,VALID,353,VALID,0.621962,
2003-09-10, 01:53:00,VALID,917.418,VALID,0,VALID,98.1793,VALID,-0.0849042,VALID,18.1094,VALID,357,VALID,0.530165,
2003-09-10, 01:54:00,VALID,917.388,VALID,0,VALID,98.1946,VALID,-0.0849042,VALID,18.1124,VALID,357,VALID,0.549479,
2003-09-10, 01:55:00,VALID,917.381,VALID,0,VALID,98.1958,VALID,-0.0849042,VALID,18.1124,VALID,358,VALID,0.598684,
2003-09-10, 01:56:00,VALID,917.392,VALID,0,VALID,98.1488,VALID,-0.0679233,VALID,18.1189,VALID,359,VALID,0.474554,
2003-09-10, 01:57:00,VALID,917.388,VALID,0,VALID,98.1106,VALID,0.0339617,VALID,18.1274,VALID,339,VALID,0.592371,
2003-09-10, 01:58:00,VALID,917.395,VALID,0,VALID,98.0649,VALID,0.0339617,VALID,18.1339,VALID,331,VALID,0.153716,
2003-09-10, 01:59:00,VALID,917.391,VALID,0,VALID,98.0356,VALID,0.0509425,VALID,18.1468,VALID,331,VALID,0.0221706,
2003-09-10, 02:00:00,VALID,917.398,VALID,0,VALID,97.9937,VALID,0.0169808,VALID,18.1532,VALID,331,VALID,0,
2003-09-10, 02:01:00,VALID,917.4,VALID,0,VALID,97.9199,VALID,0.0509425,VALID,18.1371,VALID,331,VALID,0.0852865,
2003-09-10, 02:02:00,VALID,917.397,VALID,0,VALID,97.8996,VALID,0.0509425,VALID,18.1371,VALID,351,VALID,0.402778,
2003-09-10, 02:03:00,VALID,917.373,VALID,0,VALID,97.8207,VALID,0.0169808,VALID,18.1339,VALID,359,VALID,0.432765,
2003-09-10, 02:04:00,VALID,917.379,VALID,0,VALID,97.6402,VALID,0,VALID,18.121,VALID,355,VALID,0.736842,
2003-09-10, 02:05:00,VALID,917.388,VALID,0,VALID,97.7037,VALID,0.0169808,VALID,18.1244,VALID,350,VALID,0.642857,
2003-09-10, 02:06:00,VALID,917.39,VALID,0,VALID,97.6694,VALID,0.0169808,VALID,18.127,VALID,307,VALID,0.567555,
2003-09-10, 02:07:00,VALID,917.409,VALID,0,VALID,97.7254,VALID,0.0169808,VALID,18.1436,VALID,281,VALID,0.414485,
2003-09-10, 02:08:00,VALID,917.429,VALID,0,VALID,97.9148,VALID,0.0169808,VALID,18.1562,VALID,266,VALID,0.394003,
2003-09-10, 02:09:00,VALID,917.45,VALID,0,VALID,98.0916,VALID,0.0169808,VALID,18.1595,VALID,256,VALID,0.275391,
2003-09-10, 02:10:00,VALID,917.465,VALID,0,VALID,98.2251,VALID,0,VALID,18.1599,VALID,256,VALID,0.0553385,
2003-09-10, 02:11:00,VALID,917.483,VALID,0,VALID,98.3344,VALID,0.0339617,VALID,18.153,VALID,256,VALID,0.138021,
2003-09-10, 02:12:00,VALID,917.486,VALID,0,VALID,98.454,VALID,0,VALID,18.1597,VALID,256,VALID,0.0348011,
2003-09-10, 02:13:00,VALID,917.491,VALID,0,VALID,98.5176,VALID,0.0169808,VALID,18.1466,VALID,256,VALID,0.0215872,
2003-09-10, 02:14:00,VALID,917.49,VALID,0,VALID,98.5659,VALID,0.0339617,VALID,18.1336,VALID,256,VALID,0.166071,
2003-09-10, 02:15:00,VALID,917.482,VALID,0,VALID,98.5964,VALID,0.0169808,VALID,18.1339,VALID,256,VALID,0.0323989,
2003-09-10, 02:16:00,VALID,917.478,VALID,0,VALID,98.6307,VALID,0.0509425,VALID,18.114,VALID,256,VALID,0,
2003-09-10, 02:17:00,VALID,917.464,VALID,0,VALID,98.6676,VALID,0.0679233,VALID,18.1044,VALID,256,VALID,0,
2003-09-10, 02:18:00,VALID,917.453,VALID,0,VALID,98.7223,VALID,0,VALID,18.1147,VALID,256,VALID,0,
2003-09-10, 02:19:00,VALID,917.44,VALID,0,VALID,98.791,VALID,0.0169808,VALID,18.108,VALID,256,VALID,0,
2003-09-10, 02:20:00,VALID,917.437,VALID,0,VALID,98.8634,VALID,0,VALID,18.1115,VALID,256,VALID,0.0279948,
2003-09-10, 02:21:00,VALID,917.41,VALID,0,VALID,98.9143,VALID,0.0169808,VALID,18.105,VALID,256,VALID,0.030303,
2003-09-10, 02:22:00,VALID,917.402,VALID,0,VALID,98.9626,VALID,0,VALID,18.0981,VALID,256,VALID,0,
2003-09-10, 02:23:00,VALID,917.365,VALID,0,VALID,99.0415,VALID,0.0169808,VALID,18.0984,VALID,256,VALID,0,
2003-09-10, 02:24:00,VALID,917.348,VALID,0,VALID,99.119,VALID,0,VALID,18.1113,VALID,256,VALID,0.121553,
2003-09-10, 02:25:00,VALID,917.324,VALID,0,VALID,99.1635,VALID,0.0169808,VALID,18.1152,VALID,256,VALID,0.00253378,
2003-09-10, 02:26:00,VALID,917.325,VALID,0,VALID,99.1546,VALID,0.0339617,VALID,18.1018,VALID,256,VALID,0,
2003-09-10, 02:27:00,VALID,917.317,VALID,0,VALID,99.189,VALID,0,VALID,18.1085,VALID,256,VALID,0.000976563,
2003-09-10, 02:28:00,VALID,917.324,VALID,0,VALID,99.2157,VALID,0,VALID,18.0949,VALID,256,VALID,0.0175781,
2003-09-10, 02:29:00,VALID,917.304,VALID,0,VALID,99.2576,VALID,0,VALID,18.1048,VALID,232,VALID,0.263889,
2003-09-10, 02:30:00,VALID,917.286,VALID,0,VALID,99.2704,VALID,0.0169808,VALID,18.105,VALID,217,VALID,0.0920928,
2003-09-10, 02:31:00,VALID,917.264,VALID,0,VALID,99.3238,VALID,0.0169808,VALID,18.108,VALID,212,VALID,0.0345395,
2003-09-10, 02:32:00,VALID,917.259,VALID,0,VALID,99.3683,VALID,0,VALID,18.115,VALID,212,VALID,0,
2003-09-10, 02:33:00,VALID,917.244,VALID,0,VALID,99.3988,VALID,0.0509425,VALID,18.1113,VALID,212,VALID,0,
2003-09-10, 02:34:00,VALID,917.221,VALID,0,VALID,99.4331,VALID,0,VALID,18.1274,VALID,212,VALID,0,
2003-09-10, 02:35:00,VALID,917.196,VALID,0,VALID,99.4624,VALID,0.0169808,VALID,18.1309,VALID,212,VALID,0,
2003-09-10, 02:36:00,VALID,917.184,VALID,0,VALID,99.4942,VALID,0.0339617,VALID,18.1406,VALID,213,VALID,0.0771484,
2003-09-10, 02:37:00,VALID,917.163,VALID,0,VALID,99.5081,VALID,0.0169808,VALID,18.1569,VALID,213,VALID,0,
2003-09-10, 02:38:00,VALID,917.145,VALID,0,VALID,99.5031,VALID,0,VALID,18.1567,VALID,213,VALID,0,
2003-09-10, 02:39:00,VALID,917.139,VALID,0,VALID,99.5018,VALID,0.0169808,VALID,18.1629,VALID,213,VALID,0,
2003-09-10, 02:40:00,VALID,917.129,VALID,0,VALID,99.5018,VALID,0.0339617,VALID,18.1595,VALID,213,VALID,0.0269326,
2003-09-10, 02:41:00,VALID,917.132,VALID,0,VALID,99.5158,VALID,0,VALID,18.1825,VALID,239,VALID,0.0901786,
2003-09-10, 02:42:00,VALID,917.143,VALID,0,VALID,99.4929,VALID,-0.0339617,VALID,18.1996,VALID,339,VALID,0.356388,
2003-09-10, 02:43:00,VALID,917.133,VALID,0,VALID,99.4496,VALID,-0.101885,VALID,18.1798,VALID,355,VALID,0.759079,
2003-09-10, 02:44:00,VALID,917.128,VALID,0,VALID,99.4102,VALID,-0.0679233,VALID,18.212,VALID,359,VALID,0.99261,
2003-09-10, 02:45:00,VALID,917.109,VALID,0,VALID,99.264,VALID,-0.0509425,VALID,18.2183,VALID,29,VALID,1.01831,
2003-09-10, 02:46:00,VALID,917.087,VALID,0,VALID,99.1572,VALID,-0.0509425,VALID,18.2381,VALID,11,VALID,1.38151,
2003-09-10, 02:47:00,VALID,917.05,VALID,0,VALID,99.0377,VALID,-0.0679233,VALID,18.2702,VALID,16,VALID,1.09722,
2003-09-10, 02:48:00,VALID,917.047,VALID,0,VALID,98.8584,VALID,-0.0849042,VALID,18.2796,VALID,23,VALID,0.661458,
2003-09-10, 02:49:00,VALID,917.025,VALID,0,VALID,98.6485,VALID,-0.0509425,VALID,18.2863,VALID,17,VALID,0.505962,
2003-09-10, 02:50:00,VALID,917.011,VALID,0,VALID,98.4832,VALID,-0.0679233,VALID,18.2766,VALID,17,VALID,0.326562,
2003-09-10, 02:51:00,VALID,917.004,VALID,0,VALID,98.3497,VALID,-0.0849042,VALID,18.2669,VALID,17,VALID,0.162454,
2003-09-10, 02:52:00,VALID,916.997,VALID,0,VALID,98.2302,VALID,-0.118866,VALID,18.257,VALID,17,VALID,0.327069,
2003-09-10, 02:53:00,VALID,916.981,VALID,0,VALID,98.1374,VALID,-0.0679233,VALID,18.2512,VALID,17,VALID,0.211782,
2003-09-10, 02:54:00,VALID,916.962,VALID,0,VALID,98.1157,VALID,-0.0679233,VALID,18.2406,VALID,332,VALID,0.591064,
2003-09-10, 02:55:00,VALID,916.943,VALID,0,VALID,98.1094,VALID,-0.0679233,VALID,18.2441,VALID,313,VALID,0.0828993,
2003-09-10, 02:56:00,VALID,916.907,VALID,0,VALID,98.1424,VALID,-0.0339617,VALID,18.2572,VALID,302,VALID,0.286675,
2003-09-10, 02:57:00,VALID,916.889,VALID,0,VALID,98.1399,VALID,0.0509425,VALID,18.2755,VALID,301,VALID,0.119081,
2003-09-10, 02:58:00,VALID,916.854,VALID,0,VALID,98.1208,VALID,0.0339617,VALID,18.2755,VALID,301,VALID,0.201686,
2003-09-10, 02:59:00,VALID,916.84,VALID,0,VALID,98.1704,VALID,0.0339617,VALID,18.2651,VALID,301,VALID,0.228795,
2003-09-10, 03:00:00,VALID,916.832,VALID,0,VALID,98.206,VALID,0.0339617,VALID,18.2653,VALID,301,VALID,0.0664063,
2003-09-10, 03:01:00,VALID,916.825,VALID,0,VALID,98.1958,VALID,0.0849042,VALID,18.2718,VALID,301,VALID,0,
2003-09-10, 03:02:00,VALID,916.827,VALID,0,VALID,98.1615,VALID,0.0509425,VALID,18.2462,VALID,339,VALID,0.186022,
2003-09-10, 03:03:00,VALID,916.834,VALID,0,VALID,98.0102,VALID,0.0509425,VALID,18.2236,VALID,353,VALID,0,
2003-09-10, 03:04:00,VALID,916.822,VALID,0,VALID,98.0127,VALID,0.0339617,VALID,18.1715,VALID,353,VALID,0,
2003-09-10, 03:05:00,VALID,916.81,VALID,0,VALID,98.0127,VALID,0.0509425,VALID,18.1429,VALID,353,VALID,0,
2003-09-10, 03:06:00,VALID,916.792,VALID,0,VALID,97.9517,VALID,0.0509425,VALID,18.0977,VALID,353,VALID,0,
2003-09-10, 03:07:00,VALID,916.77,VALID,0,VALID,98.0064,VALID,0.0339617,VALID,18.0622,VALID,353,VALID,0,
2003-09-10, 03:08:00,VALID,916.754,VALID,0,VALID,98.0547,VALID,0.0169808,VALID,18.0232,VALID,353,VALID,0,
2003-09-10, 03:09:00,VALID,916.74,VALID,0,VALID,98.1386,VALID,0.0169808,VALID,17.9912,VALID,353,VALID,0,
2003-09-10, 03:10:00,VALID,916.728,VALID,0,VALID,98.2963,VALID,0.0679233,VALID,17.9879,VALID,353,VALID,0,
2003-09-10, 03:11:00,VALID,916.7,VALID,0,VALID,98.3599,VALID,0,VALID,17.9619,VALID,353,VALID,0,
2003-09-10, 03:12:00,VALID,916.703,VALID,0,VALID,98.5494,VALID,-0.0339617,VALID,17.9669,VALID,353,VALID,0.133545,
2003-09-10, 03:13:00,VALID,916.694,VALID,0,VALID,98.7159,VALID,-0.0169808,VALID,17.9699,VALID,353,VALID,0.133247,
2003-09-10, 03:14:00,VALID,916.693,VALID,0,VALID,98.7706,VALID,-0.0509425,VALID,17.9796,VALID,353,VALID,0.263238,
2003-09-10, 03:15:00,VALID,916.681,VALID,0,VALID,98.6803,VALID,-0.0509425,VALID,17.9565,VALID,353,VALID,0.367898,
2003-09-10, 03:16:00,VALID,916.679,VALID,0,VALID,98.7108,VALID,-0.0509425,VALID,17.951,VALID,353,VALID,0.248355,
2003-09-10, 03:17:00,VALID,916.68,VALID,0,VALID,98.7948,VALID,-0.0169808,VALID,17.931,VALID,353,VALID,0.364062,
2003-09-10, 03:18:00,VALID,916.698,VALID,0,VALID,98.8838,VALID,-0.0339617,VALID,17.9439,VALID,353,VALID,0.351103,
2003-09-10, 03:19:00,VALID,916.71,VALID,0,VALID,98.9232,VALID,-0.0169808,VALID,17.9475,VALID,353,VALID,0.370988,
2003-09-10, 03:20:00,VALID,916.735,VALID,0,VALID,98.9703,VALID,-0.0509425,VALID,17.9277,VALID,148,VALID,0.412373,
2003-09-10, 03:21:01,VALID,916.766,VALID,0,VALID,99.0898,VALID,-0.0169808,VALID,17.9508,VALID,172,VALID,0.36499,
2003-09-10, 03:22:01,VALID,916.768,VALID,0,VALID,99.1521,VALID,-0.0509425,VALID,17.9568,VALID,172,VALID,0.219835,
2003-09-10, 03:23:00,VALID,916.778,VALID,0,VALID,99.2017,VALID,-0.0169808,VALID,17.9697,VALID,172,VALID,0.0976563,
2003-09-10, 03:24:00,VALID,916.792,VALID,0,VALID,99.1661,VALID,-0.0509425,VALID,17.9635,VALID,172,VALID,0.231297,
2003-09-10, 03:25:00,VALID,916.789,VALID,0,VALID,99.2055,VALID,-0.0169808,VALID,17.9602,VALID,172,VALID,0.0828536,
2003-09-10, 03:26:00,VALID,916.787,VALID,0,VALID,99.2119,VALID,-0.0169808,VALID,17.9635,VALID,172,VALID,0.00111607,
2003-09-10, 03:27:00,VALID,916.794,VALID,0,VALID,99.2564,VALID,0.0169808,VALID,17.9766,VALID,172,VALID,0.00344669,
2003-09-10, 03:28:00,VALID,916.775,VALID,0,VALID,99.2691,VALID,-0.0169808,VALID,17.9729,VALID,172,VALID,0,
2003-09-10, 03:29:00,VALID,916.767,VALID,0,VALID,99.2258,VALID,0,VALID,17.9759,VALID,172,VALID,0.0447635,
2003-09-10, 03:30:01,VALID,916.745,VALID,0,VALID,99.0987,VALID,-0.0169808,VALID,17.9503,VALID,172,VALID,0,
2003-09-10, 03:31:01,VALID,916.724,VALID,0,VALID,99.0567,VALID,-0.0339617,VALID,17.9279,VALID,172,VALID,0,
2003-09-10, 03:32:00,VALID,916.701,VALID,0,VALID,99.0644,VALID,-0.0339617,VALID,17.9118,VALID,172,VALID,0,
2003-09-10, 03:33:00,VALID,916.681,VALID,0,VALID,99.0936,VALID,0,VALID,17.9185,VALID,172,VALID,0,
2003-09-10, 03:34:00,VALID,916.662,VALID,0,VALID,99.072,VALID,-0.0169808,VALID,17.9051,VALID,172,VALID,0,
2003-09-10, 03:35:00,VALID,916.643,VALID,0,VALID,99.0771,VALID,-0.0679233,VALID,17.8954,VALID,172,VALID,0.00892857,